TimePDT,TemperatureF,Dew PointF,Humidity,Sea Level PressureIn,VisibilityMPH,Wind Direction,Wind SpeedMPH,Gust SpeedMPH,PrecipitationIn,Events,Conditions,WindDirDegrees,DateUTC
12:53 AM,57.9,48.0,70,30.01,10.0,South,5.8,-,N/A,,Overcast,190,2014-04-01 07:53:00
1:15 AM,57.2,48.2,72,30.01,2.0,South,5.8,-,N/A,,Haze,180,2014-04-01 08:15:00
1:24 AM,57.2,48.2,72,30.00,10.0,SSE,6.9,-,N/A,,Overcast,160,2014-04-01 08:24:00
1:53 AM,57.9,48.0,70,30.00,10.0,South,4.6,-,N/A,,Mostly Cloudy,170,2014-04-01 08:53:00
2:53 AM,57.0,48.9,74,29.98,8.0,SSE,5.8,-,0.01,Rain,Light Rain,160,2014-04-01 09:53:00
3:22 AM,57.2,51.8,82,29.97,6.0,SSW,10.4,-,0.03,Rain,Light Rain,200,2014-04-01 10:22:00
3:45 AM,55.4,51.8,88,29.97,7.0,WSW,4.6,-,0.05,Rain,Light Rain,250,2014-04-01 10:45:00
3:53 AM,55.9,53.1,90,29.97,8.0,WSW,4.6,-,0.05,Rain,Light Rain,250,2014-04-01 10:53:00
4:01 AM,55.4,53.6,94,29.97,7.0,WSW,3.5,-,0.00,Rain,Light Rain,250,2014-04-01 11:01:00
4:14 AM,55.4,51.8,88,29.97,10.0,West,4.6,-,0.00,,Overcast,260,2014-04-01 11:14:00
4:53 AM,55.9,51.1,84,29.96,10.0,WSW,3.5,-,0.00,,Overcast,250,2014-04-01 11:53:00
5:00 AM,55.4,51.8,88,29.96,10.0,WSW,4.6,-,N/A,,Overcast,240,2014-04-01 12:00:00
5:53 AM,55.0,48.9,80,29.96,10.0,Calm,Calm,-,N/A,,Overcast,0,2014-04-01 12:53:00
6:53 AM,54.0,46.9,77,29.98,10.0,Variable,3.5,-,N/A,,Scattered Clouds,0,2014-04-01 13:53:00
7:05 AM,55.4,46.4,72,29.98,10.0,Variable,6.9,-,N/A,,Scattered Clouds,0,2014-04-01 14:05:00
7:53 AM,55.0,46.0,72,30.00,10.0,Variable,3.5,-,N/A,,Scattered Clouds,0,2014-04-01 14:53:00
8:53 AM,57.0,45.0,64,30.01,10.0,West,5.8,-,N/A,,Scattered Clouds,270,2014-04-01 15:53:00
9:53 AM,57.9,43.0,58,30.02,10.0,West,5.8,-,N/A,,Scattered Clouds,270,2014-04-01 16:53:00
10:53 AM,59.0,43.0,55,30.03,10.0,SW,6.9,-,N/A,,Scattered Clouds,230,2014-04-01 17:53:00
11:53 AM,62.1,41.0,46,30.03,10.0,West,9.2,-,0.01,,Scattered Clouds,260,2014-04-01 18:53:00
12:53 PM,62.1,39.0,43,30.01,10.0,WSW,11.5,18.4,N/A,,Scattered Clouds,240,2014-04-01 19:53:00
1:53 PM,62.1,39.0,43,30.00,10.0,WSW,9.2,19.6,N/A,,Partly Cloudy,250,2014-04-01 20:53:00
2:53 PM,62.1,37.9,41,29.99,10.0,SW,12.7,-,N/A,,Partly Cloudy,230,2014-04-01 21:53:00
3:53 PM,62.1,41.0,46,29.98,10.0,SW,12.7,19.6,N/A,,Partly Cloudy,230,2014-04-01 22:53:00
4:53 PM,61.0,42.1,50,29.97,10.0,WSW,11.5,-,N/A,,Partly Cloudy,240,2014-04-01 23:53:00
5:53 PM,60.1,44.1,55,29.97,10.0,West,10.4,18.4,N/A,,Partly Cloudy,280,2014-04-02 00:53:00
6:53 PM,59.0,43.0,55,29.97,10.0,West,6.9,-,N/A,,Partly Cloudy,260,2014-04-02 01:53:00
7:53 PM,57.9,44.1,60,29.97,10.0,West,11.5,17.3,N/A,,Partly Cloudy,260,2014-04-02 02:53:00
8:53 PM,57.9,44.1,60,29.98,10.0,West,6.9,-,N/A,,Scattered Clouds,270,2014-04-02 03:53:00
9:53 PM,57.9,45.0,62,29.99,10.0,WNW,5.8,-,N/A,,Mostly Cloudy,290,2014-04-02 04:53:00
10:53 PM,57.0,44.1,62,29.99,10.0,West,6.9,-,N/A,,Mostly Cloudy,270,2014-04-02 05:53:00
11:53 PM,57.0,44.1,62,29.99,10.0,West,3.5,-,N/A,,Clear,270,2014-04-02 06:53:00